GMATT EBCI-EBBR

Flight info

Callsign GMATT
Flight time 0h 20m
Altitude 16000
Route LNO
Aircraft A320/M-SDE3FGHIRWY/LB1

Departure

Time 2026-05-04 14:39
Airport Brussels South Charleroi Airport (EBCI)

Arrival

Time 2026-05-04 15:00
Airport Brussels Airport (EBBR)
Time Latitude Longitude Altitude Speed Heading
2026-05-04 14:26 50.46738 4.46636 586 ft 0 kts 336°
2026-05-04 14:33 50.46731 4.46641 586 ft 4 kts 337°
2026-05-04 14:33 50.46706 4.46657 587 ft 4 kts 337°
2026-05-04 14:34 50.46686 4.46661 588 ft 4 kts 45°
2026-05-04 14:34 50.46676 4.46635 588 ft 4 kts 65°
2026-05-04 14:34 50.46671 4.46621 588 ft 0 kts 65°
2026-05-04 14:37 50.46685 4.46671 588 ft 15 kts 66°
2026-05-04 14:37 50.46645 4.46798 591 ft 14 kts 153°
2026-05-04 14:37 50.46613 4.46821 593 ft 0 kts 156°
2026-05-04 14:38 50.46596 4.46833 593 ft 12 kts 156°
2026-05-04 14:38 50.46465 4.46879 594 ft 21 kts 205°
2026-05-04 14:38 50.46374 4.46631 590 ft 46 kts 245°
2026-05-04 14:39 50.46103 4.45697 596 ft 136 kts 245°
2026-05-04 14:39 50.45652 4.44074 1000 ft 175 kts 247°
2026-05-04 14:39 50.45172 4.42242 1900 ft 187 kts 246°
2026-05-04 14:40 50.43952 4.38518 3761 ft 194 kts 239°
2026-05-04 14:40 50.43463 4.36478 4361 ft 214 kts 269°
2026-05-04 14:40 50.43972 4.34179 4927 ft 242 kts 310°
2026-05-04 14:40 50.45455 4.32737 5704 ft 265 kts 348°
2026-05-04 14:41 50.47302 4.32959 6790 ft 275 kts 21°
2026-05-04 14:41 50.48989 4.34438 7554 ft 281 kts 36°
2026-05-04 14:41 50.51890 4.38468 7952 ft 280 kts 44°
2026-05-04 14:42 50.54768 4.42592 7975 ft 280 kts 41°
2026-05-04 14:42 50.56265 4.44578 8181 ft 285 kts 39°
2026-05-04 14:42 50.57803 4.46542 9504 ft 286 kts 39°
2026-05-04 14:43 50.59387 4.48528 10469 ft 302 kts 38°
2026-05-04 14:43 50.61094 4.50673 11079 ft 326 kts 39°
2026-05-04 14:43 50.62308 4.52199 11665 ft 334 kts 39°
2026-05-04 14:43 50.64147 4.54510 12641 ft 343 kts 39°
2026-05-04 14:44 50.66013 4.56857 13033 ft 345 kts 39°
2026-05-04 14:44 50.67879 4.59202 12478 ft 342 kts 39°
2026-05-04 14:44 50.69726 4.61528 11939 ft 337 kts 39°
2026-05-04 14:44 50.71548 4.63823 11409 ft 334 kts 39°
2026-05-04 14:45 50.73356 4.66104 10891 ft 331 kts 39°
2026-05-04 14:45 50.75141 4.68363 10374 ft 327 kts 38°
2026-05-04 14:45 50.76877 4.70587 9884 ft 324 kts 39°
2026-05-04 14:45 50.78615 4.72824 9324 ft 321 kts 38°
2026-05-04 14:46 50.80505 4.74620 8782 ft 317 kts 19°
2026-05-04 14:46 50.82618 4.75534 8237 ft 313 kts 13°
2026-05-04 14:46 50.84707 4.76310 7661 ft 301 kts 13°
2026-05-04 14:46 50.86690 4.77041 7146 ft 284 kts 13°
2026-05-04 14:47 50.88562 4.77730 6660 ft 270 kts 13°
2026-05-04 14:47 50.90345 4.78385 6161 ft 253 kts 13°
2026-05-04 14:47 50.91974 4.78975 5656 ft 229 kts 10°
2026-05-04 14:47 50.93489 4.78842 5182 ft 213 kts 338°
2026-05-04 14:48 50.94612 4.77472 4752 ft 203 kts 309°
2026-05-04 14:48 50.95395 4.75634 4293 ft 200 kts 293°
2026-05-04 14:48 50.95670 4.73498 3858 ft 198 kts 275°
2026-05-04 14:48 50.95766 4.71332 3431 ft 196 kts 273°
2026-05-04 14:49 50.95834 4.69228 2997 ft 187 kts 273°
2026-05-04 14:49 50.95874 4.67197 2564 ft 181 kts 270°
2026-05-04 14:49 50.95574 4.65322 2275 ft 171 kts 246°
2026-05-04 14:49 50.95085 4.63629 2021 ft 167 kts 246°
2026-05-04 14:50 50.94607 4.61959 1791 ft 166 kts 247°
2026-05-04 14:50 50.94155 4.60384 1562 ft 147 kts 247°
2026-05-04 14:50 50.93753 4.58985 1366 ft 133 kts 246°
2026-05-04 14:50 50.93375 4.57685 1173 ft 128 kts 247°
2026-05-04 14:51 50.93010 4.56415 1023 ft 125 kts 246°
2026-05-04 14:51 50.92646 4.55165 905 ft 124 kts 246°
2026-05-04 14:51 50.92279 4.53925 764 ft 124 kts 247°
2026-05-04 14:51 50.91930 4.52679 618 ft 124 kts 247°
2026-05-04 14:52 50.91504 4.51197 633 ft 183 kts 246°
2026-05-04 14:52 50.90962 4.49296 1382 ft 196 kts 246°
2026-05-04 14:52 50.90414 4.47350 1637 ft 192 kts 246°
2026-05-04 14:52 50.89875 4.45431 1884 ft 190 kts 247°
2026-05-04 14:53 50.89350 4.43513 1995 ft 190 kts 252°
2026-05-04 14:53 50.89119 4.41476 2004 ft 188 kts 268°
2026-05-04 14:53 50.89124 4.39407 2008 ft 187 kts 275°
2026-05-04 14:53 50.89586 4.37534 2004 ft 185 kts 313°
2026-05-04 14:54 50.90693 4.36572 2007 ft 185 kts 352°
2026-05-04 14:54 50.91949 4.36865 2016 ft 185 kts 18°
2026-05-04 14:54 50.93146 4.37609 2012 ft 185 kts 24°
2026-05-04 14:54 50.94116 4.38908 2008 ft 185 kts 54°
2026-05-04 14:55 50.94757 4.40686 2010 ft 186 kts 62°
2026-05-04 14:55 50.95341 4.42515 2009 ft 186 kts 63°
2026-05-04 14:55 50.95917 4.44351 2009 ft 186 kts 63°
2026-05-04 14:55 50.96493 4.46191 2009 ft 186 kts 62°
2026-05-04 14:56 50.97065 4.48032 2006 ft 186 kts 63°
2026-05-04 14:56 50.97640 4.49876 2009 ft 186 kts 63°
2026-05-04 14:56 50.98215 4.51716 2008 ft 186 kts 63°
2026-05-04 14:56 50.98591 4.53640 1998 ft 178 kts 86°
2026-05-04 14:57 50.98319 4.55449 2014 ft 170 kts 120°
2026-05-04 14:57 50.97470 4.56720 2195 ft 170 kts 148°
2026-05-04 14:57 50.96350 4.57316 2084 ft 170 kts 170°
2026-05-04 14:57 50.95227 4.57309 1856 ft 149 kts 193°
2026-05-04 14:58 50.94287 4.56825 1667 ft 139 kts 202°
2026-05-04 14:58 50.93432 4.56111 1293 ft 140 kts 216°
2026-05-04 14:58 50.92732 4.55101 1001 ft 134 kts 230°
2026-05-04 14:58 50.92242 4.53876 730 ft 128 kts 246°
2026-05-04 14:59 50.91905 4.52594 526 ft 125 kts 248°
2026-05-04 14:59 50.91556 4.51344 359 ft 124 kts 248°
2026-05-04 14:59 50.90857 4.48926 121 ft 106 kts 247°
2026-05-04 15:00 50.90622 4.48100 121 ft 57 kts 245°
2026-05-04 15:00 50.90484 4.47744 123 ft 30 kts 233°
2026-05-04 15:00 50.90427 4.47651 123 ft 1 kts 208°
2026-05-04 15:01 50.90404 4.47628 120 ft 3 kts 214°
2026-05-04 15:01 50.90382 4.47604 121 ft 5 kts 214°
2026-05-04 15:01 50.90353 4.47570 119 ft 6 kts 217°
2026-05-04 15:01 50.90315 4.47522 120 ft 8 kts 218°
2026-05-04 15:02 50.90266 4.47464 121 ft 10 kts 216°
2026-05-04 15:02 50.90208 4.47444 119 ft 8 kts 169°
2026-05-04 15:02 50.90153 4.47480 121 ft 9 kts 156°
2026-05-04 15:02 50.90101 4.47518 119 ft 7 kts 155°
2026-05-04 15:03 50.90052 4.47555 121 ft 8 kts 153°
2026-05-04 15:03 50.90001 4.47594 120 ft 7 kts 157°
2026-05-04 15:03 50.89970 4.47596 126 ft 5 kts 194°
2026-05-04 15:03 50.89928 4.47508 125 ft 12 kts 246°
2026-05-04 15:04 50.89896 4.47394 125 ft 11 kts 246°
2026-05-04 15:04 50.89881 4.47336 126 ft 0 kts 251°
2026-05-04 15:04 50.89879 4.47332 127 ft 1 kts 237°
2026-05-04 15:04 50.89873 4.47335 127 ft 2 kts 175°
2026-05-04 15:05 50.89855 4.47355 127 ft 4 kts 153°
2026-05-04 15:05 50.89829 4.47375 124 ft 4 kts 157°
2026-05-04 15:05 50.89820 4.47381 126 ft 0 kts 156°